This is the latest recevied weather packets stored in our database for station/object S50APT-10. If no packets are shown the sender has not sent any weather packets the latest 10 day(s).
| Time | Temp. | Humidity | Pressure | Rain* | Wind** | Luminosity | Snow |
|---|---|---|---|---|---|---|---|
| 1777505208 | 5.56° C | 38% | 1028.4 hPa | - | - | - | - |
| 1777504307 | 5.56° C | 39% | 1028.4 hPa | - | - | - | - |
| 1777503405 | 5.56° C | 41% | 1028.1 hPa | - | - | - | - |
| 1777502505 | 6.11° C | 43% | 1028.1 hPa | - | - | - | - |
| 1777501605 | 6.11° C | 43% | 1028 hPa | - | - | - | - |
| 1777500704 | 6.11° C | 46% | 1027.9 hPa | - | - | - | - |
| 1777499804 | 6.11° C | 50% | 1027.8 hPa | - | - | - | - |
| 1777498904 | 6.11° C | 54% | 1027.7 hPa | - | - | - | - |
| 1777498003 | 6.11° C | 58% | 1027.6 hPa | - | - | - | - |
| 1777497102 | 6.11° C | 63% | 1027.3 hPa | - | - | - | - |
| 1777496201 | 6.11° C | 68% | 1027.2 hPa | - | - | - | - |
| 1777495312 | 6.11° C | 77% | 1027 hPa | - | - | - | - |
| 1777495301 | 6.11° C | 77% | 1027 hPa | - | - | - | - |
| 1777494400 | 6.67° C | 79% | 1026.7 hPa | - | - | - | - |
| 1777493497 | 6.67° C | 78% | 1026.2 hPa | - | - | - | - |
| 1777492597 | 6.67° C | 79% | 1026 hPa | - | - | - | - |
| 1777491696 | 6.67° C | 79% | 1025.8 hPa | - | - | - | - |
| 1777490796 | 6.67° C | 79% | 1025.5 hPa | - | - | - | - |
| 1777489895 | 6.67° C | 80% | 1025.4 hPa | - | - | - | - |
| 1777488995 | 6.67° C | 80% | 1025.2 hPa | - | - | - | - |
| 1777488093 | 6.67° C | 80% | 1025 hPa | - | - | - | - |
| 1777487191 | 7.22° C | 80% | 1024.8 hPa | - | - | - | - |
| 1777486291 | 7.22° C | 79% | 1024.7 hPa | - | - | - | - |
| 1777485390 | 7.78° C | 76% | 1024.5 hPa | - | - | - | - |
| 1777484489 | 8.89° C | 72% | 1024.5 hPa | - | - | - | - |
* Rain since midnight (hover to see other rain measurements)
** Current wind speed in m/s (hover to see current wind gust speed)